Regional Weather Roundup
Issued by NWS Albany, NY

Home | Current Version | Previous Version | Text Only | Print | Product List | Glossary On
Versions: 1 2 3 4 5 6 7 8 9 10 11 12 13 14 15 16 17 18 19 20 21 22 23 24 25 26 27 28 29 30 31 32 33 34 35 36 37 38 39 40 41 42 43 44 45 46 47 48 49 50
000
ASUS41 KALY 280310
RWRALY

NEW YORK STATE HOURLY WEATHER ROUNDUP
NATIONAL WEATHER SERVICE ALBANY NY
1100 PM EDT MON MAR 27 2017

NOTE: "FAIR" INDICATES FEW OR NO CLOUDS BELOW 12,000 FEET WITH NO
SIGNIFICANT WEATHER AND/OR NO OBSTRUCTIONS TO VISIBILITY.

NYZ032-033-038>043-046>054-057>066-NYZ062>081-082-084-280400-
EAST


CITY           SKY/WX    TMP DP  RH WIND       PRES   REMARKS
ALBANY         CLOUDY    44  40  85 S3        29.99F
GLENS FALLS    FOG       35  34  96 CALM      29.98F VSB 1/4
POUGHKEEPSIE   PTCLDY    35  34  96 CALM      30.01R
NEWBURGH       CLEAR     41  41 100 CALM      30.01S
MONTGOMERY     FOG       36  35  96 CALM      29.99S VSB 1/2
WHITE PLAINS   FOG       42  41  96 N3        29.99F VSB 1/2
ISLIP          FOG       42  42 100 NE5       30.01S VSB 1/4
NEW YORK CITY  CLOUDY    44  40  85 NE5       30.01S
CENTRAL PARK   CLOUDY    48  45  89 NE5       30.02F
$$

NYZ005>009-017-018-044>046-055-056-280400-
CENTRAL


CITY           SKY/WX    TMP DP  RH WIND       PRES   REMARKS
FULTON         CLOUDY    42  38  85 SE5       29.92F
SYRACUSE       CLOUDY    41  38  89 E5        29.93F
ROME           CLOUDY    40  38  93 SE6       29.96F
ELMIRA         CLOUDY    50  46  86 CALM      29.93S
BINGHAMTON     CLOUDY    48  44  86 S3        29.94S
MONTICELLO     CLOUDY    37  37 100 CALM      30.00S
$$

NYZ026>034-041>043-087-280400-
NORTH


CITY           SKY/WX    TMP DP  RH WIND       PRES   REMARKS
WATERTOWN      CLOUDY    49  48  97 S3        29.90F
FORT DRUM      NOT AVBL
MASSENA        FOG       36  36 100 CALM      29.92F VSB 1/4
SARANAC LAKE   FOG       36  36 100 SW7       29.89F VSB 3/4 WCI  30
PLATTSBURGH    CLOUDY    37  36  96 SE3       29.93F
$$

NYZ001>004-010>016-019>021-085-280400-
WEST


CITY           SKY/WX    TMP DP  RH WIND       PRES   REMARKS
NIAGARA FALLS  CLOUDY    48  44  86 SW7       29.90F
BUFFALO        CLOUDY    48  45  89 S6        29.91F
DUNKIRK        CLOUDY    41  40  96 S7        29.93F
JAMESTOWN      PTCLDY    46  43  87 CALM      29.93S
WELLSVILLE     CLOUDY    50  48  93 CALM      29.94F
ROCHESTER      CLOUDY    50  45  83 SW9       29.92S
PENN YAN       CLOUDY    51  46  83 CALM      29.94S
$$

             KEY
       WCI = WIND CHILL INDEX
       VSB = VISIBILITY
       HX  = HEAT INDEX
$$



USA.gov is the U.S. government's official web portal to all federal, state and local government web resources and services.